Weather History for Istanbul / Sabiha Gokcen, TR

Change the Weather History Date:

Wednesday, April 16, 2014

  Actual Average (LTBA) Record (LTBA)
Temperature  
Mean Temperature 62 °F -  
Max Temperature 74 °F 60 °F 72 °F (2014)
Min Temperature 51 °F 47 °F 39 °F (2004)
Degree Days  
Heating Degree Days 2    
Growing Degree Days 12 (Base 50)    
Moisture  
Dew Point 39 °F    
Average Humidity 41    
Maximum Humidity 62    
Minimum Humidity 17    
Precipitation  
Precipitation 0.00 in - - ()
Sea Level Pressure  
Sea Level Pressure 29.87 in    
Wind  
Wind Speed 3 mph ()    
Max Wind Speed 12 mph    
Max Gust Speed -    
Visibility 6.4 miles    
Events      
Averages and records for this station are not official NWS values.
T = Trace of Precipitation, MM = Missing Value Source: Averaged Metar Reports

Daily Weather History Graph

Daily Weather History Graph

Search for Another Location

Airport:

Trip Planner

Search our weather history database for the weather conditions in past years. The results will help you decide how hot, cold, wet, or windy it might be!

Date:

Astronomy

Apr. 16, 2014 Rise Set
Actual Time 6:22 AM EEST 7:43 PM EEST
Civil Twilight 5:54 AM EEST 8:11 PM EEST
Nautical Twilight 5:20 AM EEST 8:46 PM EEST
Astronomical Twilight 4:44 AM EEST 9:22 PM EEST
Moon 9:06 PM EEST (4/16) 6:56 AM EEST (4/16)
Length of Visible Light 14h 17m
Length of Day
13h 20m
Full, 99% of the Moon is Illuminated
Apr 16
Full
Apr 22
Last Quarter
Apr 29
New
May 7
First Quarter
May 14
Full

Hourly Weather History & Observations

Time (EEST) Temp. Dew Point Humidity Pressure Visibility Wind Dir Wind Speed Gust Speed Precip Events Conditions
12:00 AM 59 °F 39 °F 35% 29.88 in 6 mi NE 2.3 mph - -  
12:20 AM 59.0 °F 39.2 °F 48% 29.86 in - NE 2.3 mph - N/A   Clear
12:50 AM 57.2 °F 39.2 °F 51% 29.86 in - NNE 2.3 mph - N/A   Clear
1:20 AM 57.2 °F 39.2 °F 51% 29.86 in - Variable 2.3 mph - N/A   Clear
1:50 AM 55.4 °F 39.2 °F 54% 29.86 in - Calm Calm - N/A   Clear
2:20 AM 53.6 °F 39.2 °F 58% 29.86 in - Calm Calm - N/A   Clear
2:50 AM 53.6 °F 41.0 °F 62% 29.86 in - West 2.3 mph - N/A   Clear
3:00 AM 53 °F 40 °F 51% 29.87 in 6 mi West 2.3 mph - -  
3:20 AM 53.6 °F 41.0 °F 62% 29.86 in - Variable 1.2 mph - N/A   Clear
3:50 AM 53.6 °F 41.0 °F 62% 29.86 in - NE 2.3 mph - N/A   Clear
4:50 AM 53.6 °F 41.0 °F 62% 29.86 in - Variable 2.3 mph - N/A   Clear
5:20 AM 55.4 °F 39.2 °F 54% 29.86 in - NNE 2.3 mph - N/A   Clear
5:50 AM 53.6 °F 39.2 °F 58% 29.86 in - Variable 1.2 mph - N/A   Clear
6:00 AM 54 °F 38 °F 44% 29.87 in 6 mi NNE 1.2 mph - -  
6:20 AM 53.6 °F 39.2 °F 58% 29.86 in - NE 2.3 mph - N/A   Clear
6:50 AM 53.6 °F 39.2 °F 58% 29.86 in - Variable 2.3 mph - N/A   Clear
7:20 AM 57.2 °F 41.0 °F 55% 29.89 in - Variable 1.2 mph - N/A   Clear
7:50 AM 59.0 °F 41.0 °F 51% 29.89 in - Calm Calm - N/A   Clear
8:20 AM 60.8 °F 41.0 °F 48% 29.89 in - Variable 1.2 mph - N/A   Clear
8:50 AM 64.4 °F 41.0 °F 42% 29.89 in - Calm Calm - N/A   Clear
9:00 AM 64 °F 41 °F 31% 29.90 in 6 mi Calm Calm - -   Clear
9:20 AM 64.4 °F 39.2 °F 40% 29.89 in - Variable 2.3 mph - N/A   Clear
9:50 AM 66.2 °F 39.2 °F 37% 29.89 in 6.2 mi Variable 2.3 mph - N/A   Mostly Cloudy
10:20 AM 66.2 °F 39.2 °F 37% 29.89 in 6.2 mi Variable 2.3 mph - N/A   Mostly Cloudy
10:50 AM 68.0 °F 41.0 °F 37% 29.89 in 6.2 mi SSE 3.5 mph - N/A   Mostly Cloudy
11:20 AM 68.0 °F 37.4 °F 33% 29.89 in 6.2 mi SW 4.6 mph - N/A   Mostly Cloudy
11:50 AM 68.0 °F 35.6 °F 30% 29.89 in 6.2 mi SW 4.6 mph - N/A   Mostly Cloudy
12:00 PM 69 °F 36 °F 19% 29.90 in 6 mi SW 4.6 mph - -   Scattered Clouds
12:20 PM 69.8 °F 35.6 °F 28% 29.89 in 6.2 mi Variable 4.6 mph - N/A   Mostly Cloudy
12:50 PM 71.6 °F 37.4 °F 29% 29.89 in 6.2 mi Variable 3.5 mph - N/A   Scattered Clouds
1:20 PM 69.8 °F 35.6 °F 28% 29.89 in 6.2 mi West 6.9 mph - N/A   Scattered Clouds
1:50 PM 71.6 °F 37.4 °F 29% 29.86 in 6.2 mi West 4.6 mph - N/A   Mostly Cloudy
2:20 PM 71.6 °F 39.2 °F 31% 29.86 in 6.2 mi Variable 1.2 mph - N/A   Mostly Cloudy
2:50 PM 73.4 °F 37.4 °F 27% 29.86 in 6.2 mi Variable 2.3 mph - N/A   Mostly Cloudy
3:00 PM 73 °F 37 °F 17% 29.86 in 6 mi NW 2.3 mph - -   Scattered Clouds
3:20 PM 73.4 °F 39.2 °F 29% 29.83 in 6.2 mi Variable 1.2 mph - N/A   Mostly Cloudy
3:50 PM 71.6 °F 39.2 °F 31% 29.83 in 6.2 mi WNW 9.2 mph - N/A   Mostly Cloudy
4:20 PM 71.6 °F 41.0 °F 33% 29.83 in 6.2 mi NNW 8.1 mph - N/A   Mostly Cloudy
4:50 PM 69.8 °F 42.8 °F 38% 29.86 in 6.2 mi North 6.9 mph - N/A   Mostly Cloudy
5:20 PM 68.0 °F 41.0 °F 37% 29.86 in 6.2 mi NNE 11.5 mph - N/A   Mostly Cloudy
5:50 PM 68.0 °F 39.2 °F 35% 29.86 in - NNE 11.5 mph - N/A   Clear
6:00 PM 68 °F 38 °F 23% 29.87 in 12 mi NNE 11.5 mph - -   Scattered Clouds
6:20 PM 66.2 °F 35.6 °F 32% 29.86 in - NNE 11.5 mph - N/A   Clear
6:50 PM 66.2 °F 37.4 °F 35% 29.86 in - NNE 11.5 mph - N/A   Clear
7:20 PM 64.4 °F 37.4 °F 37% 29.86 in - NNE 10.4 mph - N/A   Clear
7:50 PM 62.6 °F 37.4 °F 39% 29.86 in - NNE 11.5 mph - N/A   Clear
8:20 PM 62.6 °F 39.2 °F 42% 29.89 in - NNE 9.2 mph - N/A   Clear
8:50 PM 60.8 °F 39.2 °F 45% 29.89 in - NNE 9.2 mph - N/A   Clear
9:00 PM 62 °F 38 °F 30% 29.90 in 6 mi NNE 9.2 mph - -  
9:20 PM 60.8 °F 37.4 °F 42% 29.89 in - North 5.8 mph - N/A   Clear
9:50 PM 60.8 °F 35.6 °F 39% 29.89 in - NNE 8.1 mph - N/A   Clear
10:20 PM 59.0 °F 35.6 °F 42% 29.89 in - NNE 9.2 mph - N/A   Clear
10:50 PM 59.0 °F 33.8 °F 39% 29.89 in - NNE 5.8 mph - N/A   Clear
11:20 PM 59.0 °F 33.8 °F 39% 29.89 in - NE 4.6 mph - N/A   Clear
11:50 PM 59.0 °F 33.8 °F 39% 29.89 in - NE 4.6 mph - N/A   Clear